FDX146 SBGL-SBPS

Flight info

Callsign FDX146
Flight time 1h 28m
Altitude 31000
Route IMBAP UZ42 SIRAP DCT OSUNO
Aircraft RJ1H/M-SDFGIRWY/LB1

Departure

Time 2026-04-28 17:08
Airport Rio Galeão – Tom Jobim International Airport (SBGL)

Arrival

Time 2026-04-28 18:36
Airport Porto Seguro International Airport (SBPS)
Time Latitude Longitude Altitude Speed Heading
2026-04-28 15:16 -22.82927 -43.24307 21 ft 0 kts 216°
2026-04-28 16:46 -22.82920 -43.24301 21 ft 3 kts 218°
2026-04-28 16:46 -22.82905 -43.24287 24 ft 3 kts 219°
2026-04-28 16:47 -22.82888 -43.24276 25 ft 3 kts 204°
2026-04-28 16:47 -22.82869 -43.24267 24 ft 3 kts 205°
2026-04-28 16:47 -22.82851 -43.24257 26 ft 3 kts 204°
2026-04-28 16:47 -22.82834 -43.24250 23 ft 1 kts 197°
2026-04-28 16:48 -22.82829 -43.24248 22 ft 0 kts 197°
2026-04-28 16:55 -22.82829 -43.24249 22 ft 0 kts 196°
2026-04-28 16:55 -22.82841 -43.24251 24 ft 2 kts 190°
2026-04-28 16:56 -22.82863 -43.24241 22 ft 6 kts 128°
2026-04-28 16:56 -22.82863 -43.24179 22 ft 11 kts 51°
2026-04-28 16:56 -22.82808 -43.24169 24 ft 9 kts 340°
2026-04-28 16:56 -22.82735 -43.24204 23 ft 14 kts 334°
2026-04-28 16:57 -22.82639 -43.24233 22 ft 14 kts 20°
2026-04-28 16:57 -22.82547 -43.24173 21 ft 17 kts
2026-04-28 16:57 -22.82462 -43.24254 21 ft 19 kts 306°
2026-04-28 16:57 -22.82386 -43.24369 19 ft 19 kts 306°
2026-04-28 16:58 -22.82310 -43.24483 18 ft 18 kts 306°
2026-04-28 16:58 -22.82238 -43.24591 19 ft 18 kts 306°
2026-04-28 16:58 -22.82167 -43.24700 19 ft 17 kts 305°
2026-04-28 16:58 -22.82100 -43.24800 23 ft 15 kts 306°
2026-04-28 16:59 -22.82040 -43.24891 23 ft 15 kts 305°
2026-04-28 16:59 -22.81981 -43.24981 23 ft 15 kts 306°
2026-04-28 16:59 -22.81922 -43.25069 25 ft 14 kts 305°
2026-04-28 16:59 -22.81867 -43.25153 26 ft 14 kts 306°
2026-04-28 17:00 -22.81809 -43.25240 23 ft 15 kts 305°
2026-04-28 17:00 -22.81746 -43.25336 22 ft 16 kts 305°
2026-04-28 17:00 -22.81683 -43.25432 24 ft 16 kts 305°
2026-04-28 17:00 -22.81615 -43.25532 20 ft 17 kts 306°
2026-04-28 17:01 -22.81547 -43.25635 21 ft 16 kts 306°
2026-04-28 17:01 -22.81484 -43.25731 24 ft 15 kts 304°
2026-04-28 17:01 -22.81422 -43.25825 23 ft 15 kts 306°
2026-04-28 17:01 -22.81363 -43.25914 25 ft 14 kts 306°
2026-04-28 17:02 -22.81319 -43.25972 27 ft 8 kts 324°
2026-04-28 17:02 -22.81279 -43.25977 25 ft 11 kts 25°
2026-04-28 17:02 -22.81206 -43.25879 21 ft 12 kts 37°
2026-04-28 17:02 -22.81136 -43.25825 22 ft 12 kts 35°
2026-04-28 17:03 -22.80993 -43.25714 22 ft 13 kts 35°
2026-04-28 17:03 -22.80919 -43.25658 22 ft 13 kts 34°
2026-04-28 17:03 -22.80843 -43.25655 25 ft 10 kts 324°
2026-04-28 17:04 -22.80729 -43.25655 26 ft 11 kts 35°
2026-04-28 17:04 -22.80664 -43.25604 27 ft 12 kts 35°
2026-04-28 17:05 -22.80546 -43.25514 30 ft 7 kts 40°
2026-04-28 17:05 -22.80510 -43.25478 30 ft 8 kts 43°
2026-04-28 17:05 -22.80463 -43.25434 29 ft 10 kts 27°
2026-04-28 17:06 -22.80327 -43.25500 27 ft 13 kts 329°
2026-04-28 17:06 -22.80239 -43.25502 25 ft 14 kts 34°
2026-04-28 17:06 -22.80163 -43.25409 25 ft 8 kts 73°
2026-04-28 17:07 -22.80134 -43.25301 26 ft 26 kts 74°
2026-04-28 17:07 -22.80037 -43.24923 27 ft 79 kts 75°
2026-04-28 17:07 -22.79845 -43.24185 30 ft 123 kts 74°
2026-04-28 17:07 -22.79595 -43.23205 285 ft 131 kts 75°
2026-04-28 17:08 -22.79332 -43.22215 380 ft 147 kts 73°
2026-04-28 17:08 -22.79034 -43.21131 800 ft 149 kts 75°
2026-04-28 17:08 -22.78795 -43.20061 1262 ft 148 kts 78°
2026-04-28 17:08 -22.78568 -43.18910 1404 ft 169 kts 78°
2026-04-28 17:09 -22.78322 -43.17647 1763 ft 171 kts 78°
2026-04-28 17:09 -22.78065 -43.16341 1928 ft 186 kts 78°
2026-04-28 17:09 -22.77780 -43.14905 1965 ft 204 kts 78°
2026-04-28 17:09 -22.77452 -43.13316 2003 ft 227 kts 77°
2026-04-28 17:10 -22.77084 -43.11582 2206 ft 246 kts 77°
2026-04-28 17:10 -22.76686 -43.09718 2455 ft 260 kts 77°
2026-04-28 17:10 -22.76270 -43.07789 2885 ft 265 kts 77°
2026-04-28 17:10 -22.75855 -43.05857 3377 ft 267 kts 77°
2026-04-28 17:11 -22.75423 -43.03896 3868 ft 268 kts 76°
2026-04-28 17:11 -22.74804 -43.01988 4316 ft 271 kts 56°
2026-04-28 17:11 -22.73388 -43.00676 4769 ft 272 kts 22°
2026-04-28 17:11 -22.71534 -43.00362 5212 ft 273 kts 357°
2026-04-28 17:12 -22.69629 -43.00437 5666 ft 275 kts 359°
2026-04-28 17:12 -22.67701 -43.00401 6149 ft 277 kts 359°
2026-04-28 17:12 -22.65822 -43.00806 6608 ft 278 kts 338°
2026-04-28 17:12 -22.63966 -43.01371 7036 ft 281 kts 359°
2026-04-28 17:13 -22.62073 -43.00860 7501 ft 283 kts 24°
2026-04-28 17:13 -22.60263 -42.99991 7989 ft 285 kts 22°
2026-04-28 17:13 -22.58428 -42.99224 8494 ft 287 kts 20°
2026-04-28 17:13 -22.56529 -42.98521 9025 ft 289 kts 17°
2026-04-28 17:14 -22.54593 -42.97890 9579 ft 291 kts 15°
2026-04-28 17:14 -22.52624 -42.97318 10166 ft 294 kts 14°
2026-04-28 17:14 -22.50591 -42.96772 10454 ft 309 kts 13°
2026-04-28 17:14 -22.48454 -42.96232 10645 ft 323 kts 12°
2026-04-28 17:15 -22.46218 -42.95696 10923 ft 332 kts 12°
2026-04-28 17:15 -22.43951 -42.95154 11349 ft 335 kts 12°
2026-04-28 17:15 -22.41672 -42.94589 11794 ft 337 kts 13°
2026-04-28 17:15 -22.39404 -42.94025 12223 ft 339 kts 13°
2026-04-28 17:16 -22.37100 -42.93447 12643 ft 341 kts 13°
2026-04-28 17:16 -22.34781 -42.92868 13061 ft 343 kts 13°
2026-04-28 17:16 -22.32417 -42.92483 13440 ft 345 kts 360°
2026-04-28 17:16 -22.30020 -42.92650 13816 ft 346 kts 353°
2026-04-28 17:17 -22.27618 -42.92970 14192 ft 348 kts 352°
2026-04-28 17:17 -22.25207 -42.93362 14550 ft 350 kts 351°
2026-04-28 17:17 -22.22825 -42.93777 14895 ft 352 kts 350°
2026-04-28 17:17 -22.20405 -42.94218 15242 ft 354 kts 350°
2026-04-28 17:18 -22.17964 -42.94646 15581 ft 355 kts 353°
2026-04-28 17:18 -22.15509 -42.94467 15872 ft 358 kts 18°
2026-04-28 17:18 -22.13251 -42.93326 16183 ft 360 kts 30°
2026-04-28 17:18 -22.11094 -42.91936 16501 ft 362 kts 32°
2026-04-28 17:19 -22.09680 -42.90958 16715 ft 363 kts 33°
2026-04-28 17:19 -22.07579 -42.89445 17032 ft 365 kts 34°
2026-04-28 17:19 -22.05471 -42.87914 17341 ft 366 kts 34°
2026-04-28 17:19 -22.02646 -42.85880 17745 ft 368 kts 33°
2026-04-28 17:20 -22.01195 -42.84855 17948 ft 370 kts 33°
2026-04-28 17:20 -21.99037 -42.83336 18243 ft 371 kts 33°
2026-04-28 17:20 -21.96868 -42.81819 18534 ft 373 kts 33°
2026-04-28 17:20 -21.94695 -42.80331 18817 ft 374 kts 32°
2026-04-28 17:21 -21.92491 -42.78822 19100 ft 376 kts 33°
2026-04-28 17:21 -21.90287 -42.77292 19381 ft 378 kts 33°
2026-04-28 17:21 -21.88077 -42.75754 19664 ft 379 kts 33°
2026-04-28 17:22 -21.83600 -42.72683 20209 ft 382 kts 32°
2026-04-28 17:22 -21.81358 -42.71129 20473 ft 384 kts 33°
2026-04-28 17:22 -21.79103 -42.69562 20733 ft 385 kts 33°
2026-04-28 17:23 -21.74587 -42.66472 21239 ft 388 kts 32°
2026-04-28 17:23 -21.72277 -42.64876 21483 ft 390 kts 32°
2026-04-28 17:23 -21.70022 -42.63313 21723 ft 391 kts 33°
2026-04-28 17:23 -21.67717 -42.61721 21957 ft 393 kts 32°
2026-04-28 17:24 -21.65402 -42.60151 22184 ft 394 kts 32°
2026-04-28 17:24 -21.63069 -42.58584 22409 ft 395 kts 31°
2026-04-28 17:24 -21.60677 -42.57117 22625 ft 397 kts 28°
2026-04-28 17:24 -21.58249 -42.55697 22842 ft 398 kts 28°
2026-04-28 17:25 -21.55788 -42.54305 23055 ft 399 kts 27°
2026-04-28 17:25 -21.50890 -42.51528 23470 ft 402 kts 27°
2026-04-28 17:25 -21.48409 -42.50119 23674 ft 403 kts 28°
2026-04-28 17:26 -21.45922 -42.48709 23872 ft 404 kts 27°
2026-04-28 17:26 -21.43443 -42.47283 24067 ft 406 kts 28°
2026-04-28 17:26 -21.40955 -42.45830 24263 ft 407 kts 28°
2026-04-28 17:26 -21.38458 -42.44398 24460 ft 408 kts 28°
2026-04-28 17:27 -21.35933 -42.42959 24583 ft 411 kts 28°
2026-04-28 17:27 -21.33406 -42.41499 24808 ft 411 kts 28°
2026-04-28 17:27 -21.30920 -42.40059 25036 ft 411 kts 28°
2026-04-28 17:27 -21.28385 -42.38615 25272 ft 411 kts 28°
2026-04-28 17:28 -21.25868 -42.37178 25513 ft 410 kts 28°
2026-04-28 17:28 -21.20837 -42.34275 25968 ft 409 kts 28°
2026-04-28 17:28 -21.18318 -42.32845 26197 ft 409 kts 28°
2026-04-28 17:29 -21.15811 -42.31402 26404 ft 409 kts 28°
2026-04-28 17:29 -21.13302 -42.29952 26629 ft 408 kts 28°
2026-04-28 17:29 -21.10795 -42.28527 26842 ft 408 kts 28°
2026-04-28 17:30 -21.05829 -42.25676 27257 ft 407 kts 28°
2026-04-28 17:30 -21.00814 -42.22823 27667 ft 407 kts 28°
2026-04-28 17:30 -20.98326 -42.21386 27856 ft 406 kts 28°
2026-04-28 17:31 -20.95831 -42.19958 28050 ft 406 kts 28°
2026-04-28 17:31 -20.90840 -42.17119 28435 ft 405 kts 28°
2026-04-28 17:32 -20.85865 -42.14271 28802 ft 405 kts 28°
2026-04-28 17:32 -20.83402 -42.12878 28983 ft 405 kts 28°
2026-04-28 17:32 -20.80925 -42.11453 29157 ft 404 kts 28°
2026-04-28 17:32 -20.78443 -42.10037 29328 ft 404 kts 28°
2026-04-28 17:33 -20.75952 -42.08630 29503 ft 404 kts 27°
2026-04-28 17:33 -20.73476 -42.07216 29666 ft 403 kts 28°
2026-04-28 17:33 -20.71002 -42.05794 29826 ft 403 kts 28°
2026-04-28 17:33 -20.69356 -42.04862 29936 ft 403 kts 28°
2026-04-28 17:34 -20.66069 -42.03007 30153 ft 403 kts 28°
2026-04-28 17:34 -20.63571 -42.01571 30309 ft 402 kts 28°
2026-04-28 17:34 -20.61136 -42.00165 30460 ft 402 kts 28°
2026-04-28 17:34 -20.58691 -41.98714 30604 ft 402 kts 29°
2026-04-28 17:35 -20.56252 -41.97248 30757 ft 402 kts 29°
2026-04-28 17:35 -20.53814 -41.95774 30897 ft 401 kts 29°
2026-04-28 17:35 -20.48993 -41.92893 30990 ft 396 kts 28°
2026-04-28 17:36 -20.44166 -41.90010 31003 ft 403 kts 29°
2026-04-28 17:36 -20.39221 -41.87078 31008 ft 409 kts 29°
2026-04-28 17:37 -20.34220 -41.84085 31006 ft 413 kts 29°
2026-04-28 17:37 -20.29193 -41.81100 31003 ft 414 kts 29°
2026-04-28 17:38 -20.24178 -41.78127 31001 ft 415 kts 29°
2026-04-28 17:38 -20.19131 -41.75115 31001 ft 416 kts 29°
2026-04-28 17:39 -20.14068 -41.72115 31002 ft 416 kts 29°
2026-04-28 17:40 -20.06482 -41.67616 30996 ft 416 kts 29°
2026-04-28 17:40 -20.01437 -41.64636 31001 ft 417 kts 29°
2026-04-28 17:41 -19.96370 -41.61622 31001 ft 417 kts 28°
2026-04-28 17:41 -19.91295 -41.58624 30999 ft 417 kts 29°
2026-04-28 17:42 -19.86218 -41.55633 30998 ft 417 kts 29°
2026-04-28 17:42 -19.81145 -41.52624 30999 ft 417 kts 28°
2026-04-28 17:43 -19.76097 -41.49648 31001 ft 418 kts 29°
2026-04-28 17:43 -19.71007 -41.46657 30997 ft 418 kts 29°
2026-04-28 17:44 -19.65929 -41.43648 30999 ft 418 kts 28°
2026-04-28 17:44 -19.60843 -41.40659 31001 ft 418 kts 29°
2026-04-28 17:45 -19.55784 -41.37690 31002 ft 418 kts 28°
2026-04-28 17:45 -19.50705 -41.34686 31005 ft 418 kts 29°
2026-04-28 17:46 -19.45601 -41.31705 31004 ft 418 kts 29°
2026-04-28 17:46 -19.40514 -41.28705 31005 ft 418 kts 28°
2026-04-28 17:47 -19.35422 -41.25720 31002 ft 418 kts 29°
2026-04-28 17:47 -19.30318 -41.22740 31000 ft 418 kts 28°
2026-04-28 17:48 -19.25267 -41.19768 31001 ft 418 kts 28°
2026-04-28 17:48 -19.20169 -41.16800 31001 ft 418 kts 29°
2026-04-28 17:49 -19.15080 -41.13815 31001 ft 418 kts 28°
2026-04-28 17:49 -19.09983 -41.10837 31002 ft 418 kts 29°
2026-04-28 17:50 -19.04912 -41.07883 31003 ft 418 kts 28°
2026-04-28 17:50 -18.99819 -41.04894 31004 ft 418 kts 29°
2026-04-28 17:51 -18.94706 -41.01930 31001 ft 418 kts 28°
2026-04-28 17:51 -18.89619 -40.98944 31003 ft 418 kts 28°
2026-04-28 17:52 -18.84546 -40.96008 31001 ft 418 kts 29°
2026-04-28 17:52 -18.76894 -40.91552 31001 ft 418 kts 28°
2026-04-28 17:53 -18.71805 -40.88574 31000 ft 418 kts 28°
2026-04-28 17:53 -18.66695 -40.85625 31001 ft 418 kts 29°
2026-04-28 17:54 -18.61637 -40.82668 31001 ft 418 kts 28°
2026-04-28 17:54 -18.56500 -40.79704 31001 ft 418 kts 29°
2026-04-28 17:55 -18.51439 -40.76752 30999 ft 418 kts 28°
2026-04-28 17:55 -18.46335 -40.73804 30998 ft 418 kts 29°
2026-04-28 17:56 -18.41232 -40.70842 30997 ft 418 kts 28°
2026-04-28 17:56 -18.36126 -40.67891 30998 ft 418 kts 29°
2026-04-28 17:57 -18.31029 -40.64942 31000 ft 418 kts 28°
2026-04-28 17:57 -18.25960 -40.62015 31001 ft 418 kts 29°
2026-04-28 17:58 -18.20851 -40.59068 31000 ft 418 kts 28°
2026-04-28 17:58 -18.15752 -40.56119 30997 ft 418 kts 28°
2026-04-28 17:59 -18.10644 -40.53183 30995 ft 418 kts 28°
2026-04-28 17:59 -18.05546 -40.50235 30998 ft 418 kts 28°
2026-04-28 18:00 -18.00442 -40.47305 30999 ft 418 kts 28°
2026-04-28 18:00 -17.95337 -40.44360 31000 ft 418 kts 29°
2026-04-28 18:01 -17.90259 -40.41448 31000 ft 418 kts 28°
2026-04-28 18:01 -17.85155 -40.38508 31000 ft 418 kts 29°
2026-04-28 18:02 -17.80069 -40.35538 30998 ft 418 kts 31°
2026-04-28 18:02 -17.75541 -40.31721 31005 ft 418 kts 45°
2026-04-28 18:03 -17.71635 -40.27194 31002 ft 419 kts 49°
2026-04-28 18:03 -17.67846 -40.22550 31001 ft 419 kts 49°
2026-04-28 18:04 -17.64036 -40.17983 30998 ft 418 kts 49°
2026-04-28 18:04 -17.60173 -40.13418 30997 ft 418 kts 48°
2026-04-28 18:05 -17.56930 -40.09597 31000 ft 418 kts 48°
2026-04-28 18:05 -17.54373 -40.06587 30877 ft 415 kts 48°
2026-04-28 18:05 -17.52433 -40.04304 30286 ft 423 kts 48°
2026-04-28 18:06 -17.48493 -39.99668 30068 ft 426 kts 48°
2026-04-28 18:06 -17.46515 -39.97342 29393 ft 426 kts 47°
2026-04-28 18:06 -17.44411 -39.95207 28731 ft 426 kts 42°
2026-04-28 18:07 -17.42128 -39.93231 28065 ft 427 kts 36°
2026-04-28 18:07 -17.39640 -39.91524 27402 ft 428 kts 30°
2026-04-28 18:07 -17.37028 -39.90015 26763 ft 428 kts 27°
2026-04-28 18:07 -17.34370 -39.88608 26173 ft 428 kts 26°
2026-04-28 18:08 -17.31698 -39.87224 25584 ft 429 kts 26°
2026-04-28 18:08 -17.29025 -39.85830 24987 ft 430 kts 26°
2026-04-28 18:08 -17.26356 -39.84420 24402 ft 430 kts 27°
2026-04-28 18:08 -17.23688 -39.82985 23811 ft 431 kts 27°
2026-04-28 18:09 -17.21015 -39.81541 23217 ft 432 kts 27°
2026-04-28 18:09 -17.19249 -39.80586 22823 ft 429 kts 27°
2026-04-28 18:09 -17.15748 -39.78688 22031 ft 423 kts 27°
2026-04-28 18:09 -17.14020 -39.77751 21638 ft 420 kts 27°
2026-04-28 18:10 -17.11433 -39.76347 21038 ft 417 kts 27°
2026-04-28 18:10 -17.08869 -39.74956 20433 ft 413 kts 27°
2026-04-28 18:10 -17.06330 -39.73578 19840 ft 409 kts 27°
2026-04-28 18:10 -17.03812 -39.72211 19235 ft 405 kts 27°
2026-04-28 18:11 -17.01346 -39.70813 18638 ft 401 kts 29°
2026-04-28 18:11 -16.98942 -39.69358 18038 ft 398 kts 31°
2026-04-28 18:11 -16.96575 -39.67879 17441 ft 394 kts 31°
2026-04-28 18:11 -16.94239 -39.66405 16837 ft 390 kts 31°
2026-04-28 18:12 -16.91924 -39.64934 16234 ft 387 kts 31°
2026-04-28 18:12 -16.89636 -39.63480 15634 ft 383 kts 31°
2026-04-28 18:12 -16.87374 -39.62038 15034 ft 380 kts 31°
2026-04-28 18:12 -16.85153 -39.60623 14441 ft 377 kts 31°
2026-04-28 18:13 -16.82920 -39.59222 13841 ft 373 kts 31°
2026-04-28 18:13 -16.80694 -39.57845 13241 ft 370 kts 31°
2026-04-28 18:13 -16.78494 -39.56463 12633 ft 367 kts 31°
2026-04-28 18:13 -16.76326 -39.55090 12025 ft 363 kts 31°
2026-04-28 18:14 -16.74166 -39.53742 11427 ft 360 kts 31°
2026-04-28 18:14 -16.72099 -39.52283 10824 ft 357 kts 36°
2026-04-28 18:14 -16.70132 -39.50731 10473 ft 353 kts 37°
2026-04-28 18:14 -16.68189 -39.49161 10349 ft 353 kts 38°
2026-04-28 18:15 -16.66257 -39.47582 10316 ft 352 kts 38°
2026-04-28 18:15 -16.64338 -39.46037 10304 ft 352 kts 37°
2026-04-28 18:15 -16.62429 -39.44508 10290 ft 336 kts 37°
2026-04-28 18:15 -16.60634 -39.43075 10281 ft 314 kts 37°
2026-04-28 18:16 -16.58949 -39.41729 10262 ft 297 kts 37°
2026-04-28 18:16 -16.57333 -39.40443 10082 ft 289 kts 37°
2026-04-28 18:16 -16.55751 -39.39206 9259 ft 275 kts 37°
2026-04-28 18:16 -16.54227 -39.38002 8382 ft 274 kts 37°
2026-04-28 18:17 -16.52720 -39.36806 7497 ft 270 kts 37°
2026-04-28 18:17 -16.51322 -39.35578 6629 ft 266 kts 50°
2026-04-28 18:17 -16.50519 -39.33863 5769 ft 263 kts 74°
2026-04-28 18:17 -16.50050 -39.32031 4890 ft 260 kts 76°
2026-04-28 18:18 -16.49627 -39.30220 4249 ft 253 kts 77°
2026-04-28 18:18 -16.49218 -39.28450 4082 ft 250 kts 77°
2026-04-28 18:18 -16.48796 -39.26679 3985 ft 253 kts 76°
2026-04-28 18:18 -16.48504 -39.25503 3959 ft 252 kts 76°
2026-04-28 18:19 -16.47901 -39.23135 3938 ft 251 kts 75°
2026-04-28 18:19 -16.47440 -39.21406 3935 ft 251 kts 75°
2026-04-28 18:19 -16.46968 -39.19652 3934 ft 250 kts 75°
2026-04-28 18:19 -16.46483 -39.17870 3929 ft 265 kts 74°
2026-04-28 18:20 -16.45982 -39.16027 3926 ft 264 kts 75°
2026-04-28 18:20 -16.45480 -39.14188 3927 ft 264 kts 73°
2026-04-28 18:20 -16.44665 -39.12492 3932 ft 263 kts 52°
2026-04-28 18:20 -16.43690 -39.10891 3935 ft 263 kts 71°
2026-04-28 18:21 -16.43204 -39.09063 3936 ft 261 kts 69°
2026-04-28 18:21 -16.42121 -39.07630 3936 ft 248 kts 31°
2026-04-28 18:21 -16.40522 -39.07178 3923 ft 239 kts 355°
2026-04-28 18:21 -16.38983 -39.07765 3816 ft 239 kts 320°
2026-04-28 18:22 -16.38053 -39.09166 3722 ft 237 kts 284°
2026-04-28 18:22 -16.38043 -39.10828 3628 ft 234 kts 257°
2026-04-28 18:22 -16.38432 -39.12478 3523 ft 235 kts 252°
2026-04-28 18:22 -16.39289 -39.13893 3417 ft 233 kts 218°
2026-04-28 18:23 -16.40580 -39.14904 3302 ft 233 kts 229°
2026-04-28 18:23 -16.41178 -39.16440 3201 ft 233 kts 268°
2026-04-28 18:23 -16.41088 -39.18123 3037 ft 234 kts 274°
2026-04-28 18:23 -16.40985 -39.19844 2991 ft 239 kts 274°
2026-04-28 18:24 -16.40873 -39.21571 2976 ft 238 kts 275°
2026-04-28 18:24 -16.40789 -39.22709 2974 ft 238 kts 275°
2026-04-28 18:24 -16.40611 -39.25006 2967 ft 238 kts 275°
2026-04-28 18:24 -16.40552 -39.26696 2930 ft 228 kts 272°
2026-04-28 18:25 -16.40519 -39.28308 2939 ft 220 kts 271°
2026-04-28 18:25 -16.40479 -39.29879 3063 ft 212 kts 272°
2026-04-28 18:25 -16.40428 -39.31344 3199 ft 192 kts 274°
2026-04-28 18:26 -16.39861 -39.33885 3067 ft 180 kts 321°
2026-04-28 18:26 -16.38729 -39.34275 3029 ft 174 kts 10°
2026-04-28 18:26 -16.37728 -39.33649 3024 ft 173 kts 55°
2026-04-28 18:26 -16.37422 -39.32447 3037 ft 174 kts 84°
2026-04-28 18:27 -16.37332 -39.31190 3034 ft 175 kts 86°
2026-04-28 18:27 -16.37288 -39.29920 3034 ft 175 kts 88°
2026-04-28 18:27 -16.37280 -39.28653 3029 ft 175 kts 89°
2026-04-28 18:27 -16.37289 -39.27385 2995 ft 175 kts 89°
2026-04-28 18:28 -16.37309 -39.26130 2974 ft 175 kts 90°
2026-04-28 18:28 -16.37387 -39.24857 2964 ft 177 kts 102°
2026-04-28 18:28 -16.38119 -39.23852 2856 ft 185 kts 148°
2026-04-28 18:28 -16.39403 -39.23670 2424 ft 194 kts 193°
2026-04-28 18:29 -16.40500 -39.24421 2111 ft 185 kts 225°
2026-04-28 18:29 -16.41346 -39.25332 1994 ft 168 kts 223°
2026-04-28 18:29 -16.42132 -39.26193 1972 ft 162 kts 228°
2026-04-28 18:29 -16.43021 -39.26862 1981 ft 157 kts 200°
2026-04-28 18:30 -16.44040 -39.27309 2013 ft 159 kts 193°
2026-04-28 18:30 -16.44746 -39.27287 1989 ft 152 kts 155°
2026-04-28 18:30 -16.45995 -39.26622 1964 ft 152 kts 146°
2026-04-28 18:30 -16.46910 -39.26079 1954 ft 152 kts 146°
2026-04-28 18:31 -16.47792 -39.25482 1952 ft 150 kts 131°
2026-04-28 18:31 -16.48047 -39.24504 1927 ft 145 kts 77°
2026-04-28 18:31 -16.47832 -39.23465 1865 ft 146 kts 78°
2026-04-28 18:31 -16.47594 -39.22421 1767 ft 147 kts 75°
2026-04-28 18:32 -16.47368 -39.21400 1841 ft 145 kts 78°
2026-04-28 18:32 -16.47142 -39.20380 1782 ft 143 kts 76°
2026-04-28 18:32 -16.46899 -39.19396 1742 ft 131 kts 75°
2026-04-28 18:32 -16.46684 -39.18557 1667 ft 116 kts 71°
2026-04-28 18:33 -16.46467 -39.17749 1700 ft 117 kts 72°
2026-04-28 18:33 -16.46245 -39.16949 1640 ft 112 kts 77°
2026-04-28 18:33 -16.46011 -39.16155 1649 ft 122 kts 72°
2026-04-28 18:33 -16.45770 -39.15314 1444 ft 119 kts 69°
2026-04-28 18:34 -16.45542 -39.14494 1297 ft 120 kts 76°
2026-04-28 18:34 -16.45333 -39.13668 1135 ft 117 kts 71°
2026-04-28 18:34 -16.45113 -39.12836 950 ft 120 kts 75°
2026-04-28 18:34 -16.44883 -39.12009 799 ft 118 kts 75°
2026-04-28 18:35 -16.44662 -39.11180 631 ft 119 kts 75°
2026-04-28 18:35 -16.44448 -39.10336 467 ft 126 kts 72°
2026-04-28 18:35 -16.44206 -39.09455 334 ft 128 kts 74°
2026-04-28 18:35 -16.43994 -39.08598 179 ft 116 kts 72°
2026-04-28 18:36 -16.43792 -39.07861 161 ft 96 kts 75°
2026-04-28 18:36 -16.43669 -39.07410 162 ft 31 kts 73°
2026-04-28 18:36 -16.43637 -39.07289 161 ft 14 kts 76°
2026-04-28 18:36 -16.43640 -39.07207 160 ft 10 kts 33°
2026-04-28 18:37 -16.43624 -39.07243 160 ft 6 kts 255°
2026-04-28 18:37 -16.43633 -39.07277 161 ft 4 kts 255°
2026-04-28 18:37 -16.43642 -39.07313 161 ft 7 kts 255°
2026-04-28 18:37 -16.43659 -39.07374 162 ft 11 kts 255°
2026-04-28 18:38 -16.43683 -39.07464 162 ft 15 kts 253°
2026-04-28 18:38 -16.43716 -39.07586 162 ft 20 kts 255°
2026-04-28 18:38 -16.43757 -39.07741 161 ft 24 kts 253°
2026-04-28 18:38 -16.43808 -39.07929 159 ft 30 kts 254°
2026-04-28 18:39 -16.43850 -39.08084 159 ft 12 kts 254°
2026-04-28 18:39 -16.43899 -39.08140 159 ft 13 kts 179°
2026-04-28 18:39 -16.43982 -39.08118 159 ft 9 kts 165°
2026-04-28 18:39 -16.44029 -39.08158 159 ft 12 kts 254°
2026-04-28 18:40 -16.44047 -39.08224 159 ft 10 kts 255°
2026-04-28 18:40 -16.44067 -39.08243 159 ft 4 kts 167°
2026-04-28 18:40 -16.44094 -39.08236 159 ft 2 kts 165°
2026-04-28 18:40 -16.44099 -39.08234 159 ft 0 kts 165°